Weather in Losino-Petrovsky

Russia / Moscow Oblast     55°52′19″N   38°12′03″E
temp.,
°C
wind,
m/s
gust,
m/s
humid.,
%
clouds,
%
prec.,
mm/h
press.,
hPa
HPBL,
m
29 may, sun
sun2900:00+6sw39931 0.0 1006207
03:00+5sw399620 0.0 1007199
06:00+7sw398695 0.0 1008340
09:00+12wsw576535 0.2 10091070
12:00+15wsw684823 0.8 10101956
15:00+16wsw684490 1.1 10112444
18:00+15wsw475137 0.1 10121798
21:00+9wsw37783 0.4 1014123
30 may, mon
mon3000:00+7wsw35880 0.0 101685
03:00+6wsw25940 0.0 101883
06:00+8w25823 0.0 1019166
09:00+14wsw34555 0.0 1020773
12:00+17sw33415 0.0 10201614
15:00+18ssw3341100 0.0 10191760
18:00+17sse3457100 0.0 1019754
21:00+13s3879100 0.0 1021215
31 may, tue
tue3100:00+12sse2583100 0.0 102096
03:00+12e3883100 0.1 1019214
06:00+11se41196100 1.6 1020526
09:00+12se51397100 4.3 1019656
12:00+12se51195100 3.2 1019640
15:00+13se4998100 3.9 1019516
18:00+13ese2698100 0.3 1018289
21:00+13ene259971 0.4 1018228
1 june, wed
wed100:00+12ne1299100 0.0 101865
03:00+11nnw2399100 0.0 101863
06:00+13nw2598100 0.6 1018203
09:00+13n279780 0.7 1019345
12:00+20n34571 0.0 10191296
15:00+22n234482 0.0 10202202
18:00+20ne2357100 0.0 1020157
21:00+15e3786100 0.0 1020140
2 june, thu
thu200:00+12se24950 0.0 102162
03:00+11ese23971 0.0 102055
06:00+13e249497 0.0 1019150
09:00+19ese236726 0.0 1018698
12:00+22s345923 0.1 10171467
15:00+24ssw345438 0.4 10161735
18:00+23s34603 0.0 1015967
21:00+17s23860 0.1 101547